Congo Town Airport


Codes: MYAK/COX
Name: Congo Town Airport
City: Andros
Country: Bahamas
Elevation: 15 ft.

Photos at Congo Town Airport


   Photos courtesy of SpottingLog. You can add your own sightings and photos by signing up for a free trial today.



No photos found.

Weather at Congo Town Airport


Time (UTC)DescriptionTempratureWindCloud coverageVisibilityPressureHumidity
13-Jun-2024 03:00Overcast Clouds28°C13 mph, E100%10000m1015hPa82%
13-Jun-2024 06:00Moderate Rain28°C11 mph, SE100%10000m1015hPa81%
13-Jun-2024 09:00Light Rain28°C11 mph, SE100%10000m1014hPa81%
13-Jun-2024 12:00Overcast Clouds28°C13 mph, SE100%10000m1015hPa82%
13-Jun-2024 15:00Light Rain29°C13 mph, SE100%10000m1015hPa77%
13-Jun-2024 18:00Light Rain29°C13 mph, SE100%10000m1014hPa75%
13-Jun-2024 21:00Light Rain28°C13 mph, SE100%10000m1013hPa81%
14-Jun-2024 00:00Light Rain28°C9 mph, SE100%10000m1014hPa84%
14-Jun-2024 03:00Moderate Rain28°C7 mph, E100%8550m1015hPa77%
14-Jun-2024 06:00Light Rain28°C7 mph, E100%10000m1014hPa75%
14-Jun-2024 09:00Light Rain28°C9 mph, SE100%10000m1013hPa72%
14-Jun-2024 12:00Light Rain26°C7 mph, SE100%2340m1015hPa79%
14-Jun-2024 15:00Moderate Rain25°C7 mph, SE100%10000m1016hPa82%
14-Jun-2024 18:00Light Rain26°C2 mph, SW100%10000m1014hPa73%
14-Jun-2024 21:00Overcast Clouds27°C2 mph, SE100%10000m1013hPa68%
15-Jun-2024 00:00Overcast Clouds27°C7 mph, SE100%10000m1014hPa73%
15-Jun-2024 03:00Overcast Clouds27°C7 mph, E100%10000m1015hPa72%
15-Jun-2024 06:00Overcast Clouds27°C7 mph, E100%10000m1014hPa74%
15-Jun-2024 09:00Light Rain26°C4 mph, SE100%10000m1014hPa80%
15-Jun-2024 12:00Light Rain27°C2 mph, SE100%10000m1015hPa76%
15-Jun-2024 15:00Light Rain29°C4 mph, E100%10000m1015hPa65%
15-Jun-2024 18:00Overcast Clouds30°C9 mph, E100%10000m1014hPa61%
15-Jun-2024 21:00Overcast Clouds30°C9 mph, E96%10000m1013hPa62%
16-Jun-2024 00:00Light Rain29°C9 mph, NE97%10000m1015hPa68%
16-Jun-2024 03:00Overcast Clouds28°C9 mph, E100%10000m1015hPa72%
16-Jun-2024 06:00Overcast Clouds28°C9 mph, E100%10000m1015hPa73%
16-Jun-2024 09:00Overcast Clouds27°C9 mph, E100%10000m1014hPa76%
16-Jun-2024 12:00Overcast Clouds28°C11 mph, E100%10000m1015hPa73%
16-Jun-2024 15:00Overcast Clouds29°C11 mph, E100%10000m1016hPa69%
16-Jun-2024 18:00Overcast Clouds30°C13 mph, E100%10000m1016hPa67%
16-Jun-2024 21:00Overcast Clouds29°C11 mph, E95%10000m1014hPa68%
17-Jun-2024 00:00Overcast Clouds28°C11 mph, E97%10000m1015hPa70%
17-Jun-2024 03:00Broken Clouds28°C13 mph, E59%10000m1016hPa72%
17-Jun-2024 06:00Scattered Clouds27°C13 mph, E46%10000m1015hPa76%
17-Jun-2024 09:00Broken Clouds27°C11 mph, E63%10000m1014hPa77%
17-Jun-2024 12:00Broken Clouds28°C16 mph, E66%10000m1015hPa72%
17-Jun-2024 15:00Light Rain29°C16 mph, E56%10000m1015hPa70%
17-Jun-2024 18:00Light Rain30°C18 mph, E64%10000m1015hPa66%
17-Jun-2024 21:00Few Clouds29°C16 mph, E13%10000m1014hPa69%
18-Jun-2024 00:00Few Clouds28°C16 mph, E15%10000m1014hPa74%